Location: Unspecified
(35.6961°N, 0.0000°E)
Time: 13:30:19
(UTC+00:00)

Explorer 11/Cluster Stage 4 - Pass Details

Date: 24 May 2019
Orbit: 467 x 1260 km, 28.8° (Epoch: 24 June)

Event Time Altitude Azimuth Distance (km) Brightness Sun altitude
Rises 03:24:43 0° 242° (WSW) 3,285 - -15.2°
Reaches altitude 10° 03:27:42 10° 232° (SW) 2,206 - -14.7°
Exits shadow 03:30:01 21° 213° (SSW) 1,483 7.4 -14.3°
Maximum altitude 03:32:04 29° 173° (S) 1,150 7.2 -14.0°
Drops below altitude 10° 03:35:45 10° 112° (ESE) 1,839 8.9 -13.4°
Sets 03:38:02 0° 101° (E) 2,647 10.0 -13.1°
